TimeCST,TemperatureF,Dew PointF,Humidity,Sea Level PressureIn,VisibilityMPH,Wind Direction,Wind SpeedMPH,Gust SpeedMPH,PrecipitationIn,Events,Conditions,WindDirDegrees,DateUTC
12:53 AM,50.0,42.1,74,29.81,10.0,North,11.5,-,N/A,,Clear,360,2012-12-07 06:53:00
1:53 AM,48.9,41.0,74,29.81,10.0,North,11.5,-,N/A,,Clear,360,2012-12-07 07:53:00
2:53 AM,48.0,39.9,74,29.83,10.0,North,12.7,-,N/A,,Clear,360,2012-12-07 08:53:00
3:53 AM,46.0,39.9,79,29.82,9.0,North,12.7,-,N/A,,Clear,360,2012-12-07 09:53:00
4:53 AM,45.0,39.9,82,29.83,9.0,North,10.4,-,N/A,,Clear,360,2012-12-07 10:53:00
5:53 AM,45.0,39.9,82,29.83,9.0,North,10.4,-,N/A,,Clear,350,2012-12-07 11:53:00
6:53 AM,45.0,39.0,80,29.85,9.0,North,10.4,-,N/A,,Clear,360,2012-12-07 12:53:00
7:53 AM,44.1,39.0,82,29.85,9.0,North,8.1,-,N/A,,Clear,350,2012-12-07 13:53:00
8:53 AM,48.0,39.0,71,29.88,10.0,North,9.2,-,N/A,,Clear,10,2012-12-07 14:53:00
9:53 AM,48.0,39.9,74,29.88,10.0,North,10.4,-,N/A,,Clear,10,2012-12-07 15:53:00
10:53 AM,51.1,41.0,68,29.90,10.0,Calm,Calm,-,N/A,,Scattered Clouds,0,2012-12-07 16:53:00
11:03 AM,51.8,39.2,62,29.90,10.0,North,4.6,-,N/A,,Mostly Cloudy,360,2012-12-07 17:03:00
11:45 AM,51.8,41.0,67,29.88,10.0,North,4.6,-,N/A,,Scattered Clouds,360,2012-12-07 17:45:00
11:53 AM,52.0,39.9,63,29.87,10.0,North,3.5,-,N/A,,Partly Cloudy,10,2012-12-07 17:53:00
12:53 PM,53.1,41.0,64,29.85,10.0,North,3.5,-,N/A,,Clear,10,2012-12-07 18:53:00
1:53 PM,54.0,41.0,62,29.82,10.0,South,3.5,-,N/A,,Clear,190,2012-12-07 19:53:00
2:53 PM,55.0,41.0,59,29.82,10.0,Calm,Calm,-,N/A,,Clear,0,2012-12-07 20:53:00
3:53 PM,55.0,42.1,62,29.81,10.0,ESE,3.5,-,N/A,,Clear,110,2012-12-07 21:53:00
4:53 PM,54.0,41.0,62,29.82,10.0,ENE,4.6,-,N/A,,Clear,70,2012-12-07 22:53:00
5:53 PM,50.0,39.0,66,29.85,10.0,East,3.5,-,N/A,,Clear,80,2012-12-07 23:53:00
6:53 PM,46.0,37.9,73,29.87,10.0,Calm,Calm,-,N/A,,Clear,0,2012-12-08 00:53:00
7:53 PM,39.9,35.1,83,29.90,10.0,Calm,Calm,-,N/A,,Clear,0,2012-12-08 01:53:00
8:53 PM,37.0,33.1,86,29.92,9.0,Calm,Calm,-,N/A,,Clear,0,2012-12-08 02:53:00
9:53 PM,37.0,33.1,86,29.94,9.0,North,3.5,-,N/A,,Clear,10,2012-12-08 03:53:00
10:42 PM,44.6,42.8,93,29.93,6.0,NNE,4.6,-,N/A,,Mostly Cloudy,30,2012-12-08 04:42:00
10:53 PM,44.1,42.1,93,29.93,6.0,NE,4.6,-,N/A,,Scattered Clouds,40,2012-12-08 04:53:00
11:53 PM,41.0,39.0,93,29.93,4.0,North,4.6,-,N/A,,Clear,10,2012-12-08 05:53:00